Houghton Lake, MI

3:06 PM EDT on September 21, 2017 (GMT -0400)
Roscommon County

Weather History for KHTL - November, 2011

Change the Weather History Date:

Friday, November 11, 2011

  Actual Average Record
Temperature  
Mean Temperature 36 °F 37 °F  
Max Temperature 39 °F 44 °F 66 °F (2012)
Min Temperature 32 °F 29 °F 6 °F (1926)
Degree Days  
Heating Degree Days 29 28  
Month to date heating degree days 256 292  
Since 1 July heating degree days 1055 1270  
Moisture  
Dew Point 28 °F    
Average Humidity 72    
Maximum Humidity 89    
Minimum Humidity 54    
Precipitation  
Precipitation T in 0.08 in 0.65 in (1995)
Month to date precipitation 1.87 0.86  
Year to date precipitation 29.10 25.64  
Snow  
Snow T in 0.20 in 7.10 in (1995)
Month to date snowfall T 1.8  
Since 1 July snowfall T 2.4  
Snow Depth T in    
Sea Level Pressure  
Sea Level Pressure 29.85 in    
Wind  
Wind Speed 11 mph (West)    
Max Wind Speed 17 mph    
Max Gust Speed 23 mph    
Visibility 9 miles    
Events Snow    
T = Trace of Precipitation, MM = Missing Value Source: NWS Daily Summary

Daily Weather History Graph

Daily Weather History Graph

Search for Another Location

Airport or City:

Trip Planner

Search our weather history database for the weather conditions in past years. The results will help you decide how hot, cold, wet, or windy it might be!

Date:

Astronomy

Nov. 11, 2011 Rise Set
Actual Time 7:28 AM EST 5:15 PM EST
Civil Twilight 6:57 AM EST 5:46 PM EST
Nautical Twilight 6:22 AM EST 6:21 PM EST
Astronomical Twilight 5:48 AM EST 6:55 PM EST
Moon 5:40 PM EST (11/11) 8:19 AM EST (11/11)
Length of Visible Light 10h 49m
Length of Day
9h 46m
Full, 99% of the Moon is Illuminated
Nov 11
Full
Nov 18
Last Quarter
Nov 25
New
Dec 2
First Quarter
Dec 10
Full

Hourly Weather History & Observations

Time (EST) Temp. Windchill Dew Point Humidity Pressure Visibility Wind Dir Wind Speed Gust Speed Precip Events Conditions
12:53 AM 33.1 °F 26.1 °F 28.9 °F 85% 29.85 in 10.0 mi West 8.1 mph - N/A   Mostly Cloudy
1:53 AM 33.1 °F 26.1 °F 28.9 °F 85% 29.85 in 10.0 mi WNW 8.1 mph 16.1 mph N/A   Mostly Cloudy
2:53 AM 33.1 °F 24.4 °F 28.9 °F 85% 29.86 in 10.0 mi West 11.5 mph - N/A   Mostly Cloudy
3:29 AM 33.8 °F 25.8 °F 30.2 °F 87% 29.83 in 10.0 mi West 10.4 mph - N/A   Overcast
3:53 AM 33.1 °F 24.4 °F 30.0 °F 89% 29.86 in 10.0 mi West 11.5 mph - 0.00 in   Mostly Cloudy
4:19 AM 33.8 °F 25.8 °F 30.2 °F 87% 29.83 in 9.0 mi WNW 10.4 mph 17.3 mph 0.00 in   Mostly Cloudy
4:27 AM 33.8 °F 23.9 °F 30.2 °F 87% 29.83 in 4.0 mi WNW 15.0 mph 20.7 mph 0.00 in Snow Light Snow
4:30 AM 33.8 °F 25.3 °F 30.2 °F 87% 29.83 in 1.8 mi WNW 11.5 mph 20.7 mph 0.00 in Snow Light Snow
4:37 AM 32.0 °F 23.0 °F 30.2 °F 93% 29.83 in 1.5 mi WNW 11.5 mph 20.7 mph 0.00 in Snow Light Snow
4:42 AM 32.0 °F 23.6 °F 28.4 °F 87% 29.83 in 3.0 mi WNW 10.4 mph - 0.00 in Snow Light Snow
4:49 AM 32.0 °F 23.6 °F 28.4 °F 87% 29.83 in 9.0 mi WNW 10.4 mph - N/A Snow Light Snow
4:53 AM 32.0 °F 24.2 °F 28.9 °F 88% 29.87 in 9.0 mi WNW 9.2 mph - 0.00 in   Mostly Cloudy
5:32 AM 33.8 °F 26.4 °F 30.2 °F 87% 29.84 in 10.0 mi West 9.2 mph - N/A   Overcast
5:40 AM 33.8 °F 25.8 °F 30.2 °F 87% 29.84 in 10.0 mi West 10.4 mph - N/A   Overcast
5:53 AM 33.1 °F 24.9 °F 30.0 °F 89% 29.88 in 10.0 mi WNW 10.4 mph - 0.00 in Snow Light Snow
5:56 AM 33.8 °F 25.3 °F 30.2 °F 87% 29.84 in 9.0 mi West 11.5 mph - N/A Snow Light Snow
6:53 AM 34.0 °F 26.0 °F 30.0 °F 85% 29.89 in 10.0 mi West 10.4 mph - 0.00 in   Overcast
7:53 AM 33.1 °F 26.9 °F 28.9 °F 85% 29.90 in 10.0 mi WNW 6.9 mph - N/A   Overcast
8:08 AM 32.0 °F 24.8 °F 28.4 °F 87% 29.86 in 10.0 mi WNW 8.1 mph - N/A   Overcast
8:53 AM 34.0 °F 26.0 °F 30.0 °F 85% 29.90 in 10.0 mi West 10.4 mph - N/A   Overcast
9:53 AM 35.1 °F 27.9 °F 28.9 °F 78% 29.90 in 10.0 mi West 9.2 mph - N/A   Overcast
10:53 AM 36.0 °F 29.0 °F 28.0 °F 73% 29.91 in 10.0 mi West 9.2 mph 17.3 mph N/A   Overcast
11:53 AM 37.0 °F 29.3 °F 26.1 °F 65% 29.89 in 10.0 mi West 11.5 mph - N/A   Overcast
12:53 PM 37.0 °F 28.9 °F 25.0 °F 62% 29.88 in 10.0 mi WSW 12.7 mph 20.7 mph N/A   Mostly Cloudy
1:53 PM 37.9 °F 29.2 °F 23.0 °F 55% 29.87 in 10.0 mi WSW 15.0 mph 21.9 mph N/A   Mostly Cloudy
2:53 PM 37.9 °F 29.6 °F 25.0 °F 60% 29.86 in 10.0 mi WSW 13.8 mph 20.7 mph N/A   Mostly Cloudy
3:53 PM 37.0 °F 29.8 °F 25.0 °F 62% 29.85 in 10.0 mi WSW 10.4 mph - N/A   Mostly Cloudy
4:53 PM 37.0 °F 29.8 °F 26.1 °F 65% 29.84 in 10.0 mi SW 10.4 mph - N/A   Overcast
5:53 PM 36.0 °F 29.0 °F 26.1 °F 67% 29.82 in 10.0 mi SW 9.2 mph - N/A   Clear
6:53 PM 35.1 °F 28.6 °F 26.1 °F 70% 29.82 in 10.0 mi SSW 8.1 mph - N/A   Clear
7:53 PM 35.1 °F 27.9 °F 27.0 °F 72% 29.81 in 10.0 mi South 9.2 mph - N/A   Mostly Cloudy
8:53 PM 36.0 °F 28.0 °F 27.0 °F 70% 29.78 in 10.0 mi South 11.5 mph - N/A   Overcast
9:53 PM 36.0 °F 26.7 °F 27.0 °F 70% 29.78 in 10.0 mi South 15.0 mph 20.7 mph N/A   Overcast
10:53 PM 36.0 °F 28.0 °F 27.0 °F 70% 29.77 in 10.0 mi SSW 11.5 mph - N/A   Overcast
11:53 PM 36.0 °F 28.5 °F 28.0 °F 73% 29.74 in 10.0 mi SSW 10.4 mph - N/A   Mostly Cloudy